Time,TemperatureF,DewpointF,PressureIn,WindDirection,WindDirectionDegrees,WindSpeedMPH,WindSpeedGustMPH,Humidity,HourlyPrecipIn,Conditions,Clouds,dailyrainin,SoftwareType,DateUTC
2013-04-24 00:00:00,51.0,48.0,30.14,North,-999,-999.0,-999.0,92,-99.99,,,-99.99,,2013-04-23 23:00:00,
2013-04-24 00:41:00,51.0,48.0,30.14,North,-999,-999.0,-999.0,92,-99.99,,,-99.99,,2013-04-23 23:41:00,
2013-04-24 00:52:00,51.0,48.0,30.14,North,-999,-999.0,-999.0,92,-99.99,,,-99.99,,2013-04-23 23:52:00,
2013-04-24 01:00:00,49.0,48.0,30.10,North,-999,-999.0,-999.0,96,-99.99,,,-99.99,,2013-04-24 00:00:00,
2013-04-24 01:41:00,49.0,48.0,30.10,North,-999,-999.0,-999.0,96,-99.99,,,-99.99,,2013-04-24 00:41:00,
2013-04-24 01:51:00,49.0,48.0,30.10,North,-999,-999.0,-999.0,96,-99.99,,,-99.99,,2013-04-24 00:51:00,
2013-04-24 02:00:00,46.0,46.0,30.05,North,-999,-999.0,-999.0,100,-99.99,,,-99.99,,2013-04-24 01:00:00,
2013-04-24 02:42:00,46.0,46.0,30.05,North,-999,-999.0,-999.0,100,-99.99,,,-99.99,,2013-04-24 01:42:00,
2013-04-24 02:52:00,46.0,46.0,30.05,North,-999,-999.0,-999.0,100,-99.99,,,-99.99,,2013-04-24 01:52:00,
2013-04-24 03:00:00,47.0,47.0,30.05,North,-999,-999.0,-999.0,100,-99.99,,,-99.99,,2013-04-24 02:00:00,
2013-04-24 03:42:00,47.0,47.0,30.05,North,-999,-999.0,-999.0,100,-99.99,,,-99.99,,2013-04-24 02:42:00,
2013-04-24 04:00:00,48.0,48.0,30.02,North,-999,-999.0,-999.0,100,-99.99,,,-99.99,,2013-04-24 03:00:00,
2013-04-24 04:52:00,48.0,48.0,30.02,North,-999,-999.0,-999.0,100,-99.99,,,-99.99,,2013-04-24 03:52:00,
2013-04-24 05:00:00,56.0,56.0,30.03,North,-999,-999.0,-999.0,100,-99.99,,,-99.99,,2013-04-24 04:00:00,
2013-04-24 05:43:00,56.0,56.0,30.03,North,-999,-999.0,-999.0,100,-99.99,,,-99.99,,2013-04-24 04:43:00,
2013-04-24 05:52:00,56.0,56.0,30.03,North,-999,-999.0,-999.0,100,-99.99,,,-99.99,,2013-04-24 04:52:00,
2013-04-24 06:00:00,56.0,54.0,30.04,North,-999,-999.0,-999.0,94,-99.99,,,-99.99,,2013-04-24 05:00:00,
2013-04-24 06:42:00,56.0,54.0,30.04,North,-999,-999.0,-999.0,94,-99.99,,,-99.99,,2013-04-24 05:42:00,
2013-04-24 06:51:00,56.0,54.0,30.04,North,-999,-999.0,-999.0,94,-99.99,,,-99.99,,2013-04-24 05:51:00,
2013-04-24 07:00:00,56.0,54.0,30.04,North,-999,-999.0,-999.0,94,-99.99,,,-99.99,,2013-04-24 06:00:00,
2013-04-24 07:41:00,56.0,54.0,30.04,North,-999,-999.0,-999.0,94,-99.99,,,-99.99,,2013-04-24 06:41:00,
2013-04-24 07:51:00,56.0,54.0,30.04,North,-999,-999.0,-999.0,94,-99.99,,,-99.99,,2013-04-24 06:51:00,
2013-04-24 08:00:00,56.0,54.0,30.06,North,-999,-999.0,-999.0,93,-99.99,,,-99.99,,2013-04-24 07:00:00,
2013-04-24 08:31:00,56.0,54.0,30.06,North,-999,-999.0,-999.0,93,-99.99,,,-99.99,,2013-04-24 07:31:00,
2013-04-24 08:41:00,56.0,54.0,30.06,North,-999,-999.0,-999.0,93,-99.99,,,-99.99,,2013-04-24 07:41:00,
2013-04-24 08:51:00,56.0,54.0,30.06,North,-999,-999.0,-999.0,93,-99.99,,,-99.99,,2013-04-24 07:51:00,
2013-04-24 09:00:00,56.0,54.0,30.08,North,-999,-999.0,-999.0,91,-99.99,,,-99.99,,2013-04-24 08:00:00,
2013-04-24 09:42:00,56.0,54.0,30.08,North,-999,-999.0,-999.0,91,-99.99,,,-99.99,,2013-04-24 08:42:00,
2013-04-24 09:51:00,56.0,54.0,30.08,North,-999,-999.0,-999.0,91,-99.99,,,-99.99,,2013-04-24 08:51:00,
2013-04-24 10:00:00,56.0,53.0,30.11,North,-999,-999.0,-999.0,89,-99.99,,,-99.99,,2013-04-24 09:00:00,
2013-04-24 10:42:00,56.0,53.0,30.11,North,-999,-999.0,-999.0,89,-99.99,,,-99.99,,2013-04-24 09:42:00,
2013-04-24 10:52:00,56.0,53.0,30.11,North,-999,-999.0,-999.0,89,-99.99,,,-99.99,,2013-04-24 09:52:00,
2013-04-24 12:00:00,48.0,-99.9,30.14,North,-999,-999.0,-999.0,-999,-99.99,,,-99.99,,2013-04-24 11:00:00,
2013-04-24 12:43:00,48.0,-99.9,30.14,North,-999,-999.0,-999.0,-999,-99.99,,,-99.99,,2013-04-24 11:43:00,
2013-04-24 12:53:00,48.0,-99.9,30.14,North,-999,-999.0,-999.0,-999,-99.99,,,-99.99,,2013-04-24 11:53:00,
2013-04-24 13:00:00,47.0,47.0,30.14,North,-999,-999.0,-999.0,100,-99.99,,,-99.99,,2013-04-24 12:00:00,
2013-04-24 13:42:00,47.0,47.0,30.14,North,-999,-999.0,-999.0,100,-99.99,,,-99.99,,2013-04-24 12:42:00,
2013-04-24 13:51:00,47.0,47.0,30.14,North,-999,-999.0,-999.0,100,-99.99,,,-99.99,,2013-04-24 12:51:00,
2013-04-24 14:00:00,48.0,48.0,30.16,North,-999,-999.0,-999.0,100,-99.99,,,-99.99,,2013-04-24 13:00:00,
2013-04-24 14:41:00,48.0,48.0,30.16,North,-999,-999.0,-999.0,100,-99.99,,,-99.99,,2013-04-24 13:41:00,
2013-04-24 14:51:00,48.0,48.0,30.16,North,-999,-999.0,-999.0,100,-99.99,,,-99.99,,2013-04-24 13:51:00,
2013-04-24 15:00:00,48.0,48.0,30.20,North,-999,-999.0,-999.0,100,-99.99,,,-99.99,,2013-04-24 14:00:00,
2013-04-24 15:41:00,48.0,48.0,30.20,North,-999,-999.0,-999.0,100,-99.99,,,-99.99,,2013-04-24 14:41:00,
2013-04-24 15:51:00,48.0,48.0,30.20,North,-999,-999.0,-999.0,100,-99.99,,,-99.99,,2013-04-24 14:51:00,
2013-04-24 16:00:00,48.0,48.0,30.23,North,-999,-999.0,-999.0,100,-99.99,,,-99.99,,2013-04-24 15:00:00,
2013-04-24 16:42:00,48.0,48.0,30.23,North,-999,-999.0,-999.0,100,-99.99,,,-99.99,,2013-04-24 15:42:00,
2013-04-24 16:52:00,48.0,48.0,30.23,North,-999,-999.0,-999.0,100,-99.99,,,-99.99,,2013-04-24 15:52:00,
2013-04-24 17:00:00,49.0,47.0,30.21,North,-999,-999.0,-999.0,94,-99.99,,,-99.99,,2013-04-24 16:00:00,
2013-04-24 17:42:00,49.0,47.0,30.21,North,-999,-999.0,-999.0,94,-99.99,,,-99.99,,2013-04-24 16:42:00,
2013-04-24 17:52:00,49.0,47.0,30.21,North,-999,-999.0,-999.0,94,-99.99,,,-99.99,,2013-04-24 16:52:00,
2013-04-24 18:00:00,49.0,45.0,30.22,North,-999,-999.0,-999.0,86,-99.99,,,-99.99,,2013-04-24 17:00:00,
2013-04-24 18:42:00,49.0,45.0,30.22,North,-999,-999.0,-999.0,86,-99.99,,,-99.99,,2013-04-24 17:42:00,
2013-04-24 18:51:00,49.0,45.0,30.22,North,-999,-999.0,-999.0,86,-99.99,,,-99.99,,2013-04-24 17:51:00,
2013-04-24 19:00:00,49.0,46.0,30.23,North,-999,-999.0,-999.0,90,-99.99,,,-99.99,,2013-04-24 18:00:00,
2013-04-24 19:42:00,49.0,46.0,30.23,North,-999,-999.0,-999.0,90,-99.99,,,-99.99,,2013-04-24 18:42:00,
2013-04-24 19:52:00,49.0,46.0,30.23,North,-999,-999.0,-999.0,90,-99.99,,,-99.99,,2013-04-24 18:52:00,
2013-04-24 20:00:00,48.0,46.0,30.24,North,-999,-999.0,-999.0,92,-99.99,,,-99.99,,2013-04-24 19:00:00,
2013-04-24 20:41:00,48.0,46.0,30.24,North,-999,-999.0,-999.0,92,-99.99,,,-99.99,,2013-04-24 19:41:00,
2013-04-24 20:52:00,48.0,46.0,30.24,North,-999,-999.0,-999.0,92,-99.99,,,-99.99,,2013-04-24 19:52:00,
2013-04-24 21:00:00,48.0,46.0,30.25,North,-999,-999.0,-999.0,92,-99.99,,,-99.99,,2013-04-24 20:00:00,
2013-04-24 21:32:00,48.0,46.0,30.25,North,-999,-999.0,-999.0,92,-99.99,,,-99.99,,2013-04-24 20:32:00,
2013-04-24 21:42:00,48.0,46.0,30.25,North,-999,-999.0,-999.0,92,-99.99,,,-99.99,,2013-04-24 20:42:00,
2013-04-24 21:51:00,48.0,46.0,30.25,North,-999,-999.0,-999.0,92,-99.99,,,-99.99,,2013-04-24 20:51:00,
2013-04-24 22:00:00,47.0,46.0,30.25,North,-999,-999.0,-999.0,96,-99.99,,,-99.99,,2013-04-24 21:00:00,
2013-04-24 22:42:00,47.0,46.0,30.25,North,-999,-999.0,-999.0,96,-99.99,,,-99.99,,2013-04-24 21:42:00,
2013-04-24 22:52:00,47.0,46.0,30.25,North,-999,-999.0,-999.0,96,-99.99,,,-99.99,,2013-04-24 21:52:00,
2013-04-24 23:00:00,46.0,46.0,30.24,North,-999,-999.0,-999.0,100,-99.99,,,-99.99,,2013-04-24 22:00:00,
2013-04-24 23:42:00,46.0,46.0,30.24,North,-999,-999.0,-999.0,100,-99.99,,,-99.99,,2013-04-24 22:42:00,
2013-04-24 23:52:00,46.0,46.0,30.24,North,-999,-999.0,-999.0,100,-99.99,,,-99.99,,2013-04-24 22:52:00,